New Bedford, MA

3:54 AM EDT on April 28, 2017 (GMT -0400)
New Bedford Regional

Weather History for KEWB - September, 2013

Change the Weather History Date:

Thursday, September 19, 2013

  Actual Average Record
Temperature  
Mean Temperature 60 °F -  
Max Temperature 77 °F 73 °F 86 °F (1968)
Min Temperature 45 °F 56 °F 37 °F (2014)
Degree Days  
Heating Degree Days 5    
Growing Degree Days 10 (Base 50)    
Moisture  
Dew Point 49 °F    
Average Humidity 79    
Maximum Humidity 100    
Minimum Humidity 38    
Precipitation  
Precipitation 0.00 in - - ()
Sea Level Pressure  
Sea Level Pressure 30.11 in    
Wind  
Wind Speed 2 mph (SW)    
Max Wind Speed 10 mph    
Max Gust Speed -    
Visibility 8 miles    
Events Fog    
Averages and records for this station are not official NWS values.
T = Trace of Precipitation, MM = Missing Value Source: NWS Daily Summary

Daily Weather History Graph

Daily Weather History Graph

Search for Another Location

Airport or City:

Trip Planner

Search our weather history database for the weather conditions in past years. The results will help you decide how hot, cold, wet, or windy it might be!

Date:

Astronomy

Sep. 19, 2013 Rise Set
Actual Time 6:28 AM EDT 6:45 PM EDT
Civil Twilight 6:00 AM EDT 7:13 PM EDT
Nautical Twilight 5:27 AM EDT 7:46 PM EDT
Astronomical Twilight 4:54 AM EDT 8:19 PM EDT
Moon 6:41 PM EDT (9/19) 6:34 AM EDT (9/19)
Length of Visible Light 13h 13m
Length of Day
12h 17m
Full, 100% of the Moon is Illuminated
Sep 19
Full
Sep 26
Last Quarter
Oct 4
New
Oct 11
First Quarter
Oct 18
Full

Hourly Weather History & Observations

Time (EDT) Temp. Dew Point Humidity Pressure Visibility Wind Dir Wind Speed Gust Speed Precip Events Conditions
12:53 AM 46.9 °F 45.0 °F 93% 30.16 in 10.0 mi Calm Calm - N/A   Clear
1:53 AM 46.9 °F 45.0 °F 93% 30.15 in 10.0 mi Calm Calm - N/A   Clear
2:53 AM 48.0 °F 46.9 °F 96% 30.14 in 10.0 mi Calm Calm - N/A   Clear
3:53 AM 48.0 °F 46.9 °F 96% 30.13 in 3.0 mi SSW 3.5 mph - N/A   Clear
4:09 AM 48.2 °F 46.4 °F 93% 30.13 in 1.5 mi SSW 3.5 mph - N/A   Clear
4:18 AM 48.2 °F 46.4 °F 93% 30.13 in 0.5 mi SSW 3.5 mph - N/A Fog Fog
4:28 AM 50.0 °F 48.2 °F 94% 30.13 in 1.8 mi Calm Calm - N/A   Clear
4:33 AM 50.0 °F 48.2 °F 94% 30.13 in 3.0 mi Calm Calm - N/A   Clear
4:53 AM 48.9 °F 48.0 °F 97% 30.13 in 3.0 mi SSW 3.5 mph - N/A   Clear
5:07 AM 46.4 °F 46.4 °F 100% 30.13 in 2.5 mi Calm Calm - N/A   Clear
5:14 AM 48.2 °F 46.4 °F 93% 30.12 in 9.0 mi SW 3.5 mph - N/A   Clear
5:25 AM 48.2 °F 46.4 °F 93% 30.12 in 1.8 mi Calm Calm - N/A   Clear
5:35 AM 46.4 °F 44.6 °F 93% 30.12 in 5.0 mi Calm Calm - N/A   Clear
5:53 AM 45.0 °F 43.0 °F 93% 30.13 in 10.0 mi Calm Calm - N/A   Clear
6:53 AM 46.0 °F 45.0 °F 96% 30.13 in 10.0 mi Calm Calm - N/A   Clear
7:53 AM 54.0 °F 52.0 °F 93% 30.13 in 10.0 mi Calm Calm - N/A   Clear
8:53 AM 61.0 °F 53.1 °F 75% 30.13 in 10.0 mi WSW 4.6 mph - N/A   Clear
9:53 AM 66.0 °F 51.1 °F 59% 30.13 in 10.0 mi Calm Calm - N/A   Clear
10:53 AM 69.1 °F 52.0 °F 54% 30.12 in 10.0 mi Calm Calm - N/A   Clear
11:53 AM 72.0 °F 50.0 °F 46% 30.11 in 10.0 mi South 3.5 mph - N/A   Clear
12:53 PM 75.0 °F 51.1 °F 43% 30.10 in 10.0 mi Variable 4.6 mph - N/A   Clear
1:53 PM 75.9 °F 48.9 °F 38% 30.09 in 10.0 mi West 5.8 mph - N/A   Clear
2:53 PM 75.9 °F 48.9 °F 38% 30.07 in 10.0 mi Variable 5.8 mph - N/A   Clear
3:53 PM 75.9 °F 52.0 °F 43% 30.05 in 10.0 mi WSW 5.8 mph - N/A   Clear
4:53 PM 73.0 °F 54.0 °F 51% 30.05 in 10.0 mi SW 10.4 mph - N/A   Clear
5:53 PM 68.0 °F 53.1 °F 59% 30.05 in 10.0 mi SW 6.9 mph - N/A   Clear
6:53 PM 64.0 °F 54.0 °F 70% 30.05 in 10.0 mi SW 6.9 mph - N/A   Clear
7:53 PM 61.0 °F 55.0 °F 81% 30.07 in 10.0 mi WSW 4.6 mph - N/A   Clear
8:53 PM 55.0 °F 52.0 °F 89% 30.08 in 10.0 mi SW 3.5 mph - N/A   Clear
9:53 PM 53.1 °F 51.1 °F 93% 30.08 in 10.0 mi Calm Calm - N/A   Clear
10:53 PM 51.1 °F 50.0 °F 96% 30.07 in 9.0 mi SW 3.5 mph - N/A   Clear
11:53 PM 52.0 °F 50.0 °F 93% 30.07 in 10.0 mi Calm Calm - N/A   Clear